Location: Barcelona
(41.3830°N, 2.1830°E)
Time: 18:58:18
(UTC+01:00)

ISS - Pass Details

Date: 22 January 2020
Orbit: 415 x 422 km, 51.6° (Epoch: 23 January)

Event Time Altitude Azimuth Distance (km) Brightness Sun altitude
Rises 19:56:09 0° 255° (WSW) 2,363 1.5 -22.7°
Reaches altitude 10° 19:58:21 10° 264° (W) 1,500 0.2 -23.1°
Enters shadow 20:01:00 34° 312° (NW) 718 -2.3 -23.6°
